Location: East Kill Creek
(39.4011°N, 98.7984°W)
Time: 08:40:02
(UTC+00:00)

Daily predictions for brighter satellites

Satellite Brightness Start Highest point End
(mag) Time Altitude Azimuth Time Altitude Azimuth Time Altitude Azimuth
METEOR-M 4.2 12:00:05 10° NNE 12:05:28 84° ESE 12:10:48 10° SSW
NOAA 6 4.4 12:00:59 10° NNE 12:06:05 66° ESE 12:11:09 10° S
STARLINK-76 4.0 12:04:28 27° W 12:06:15 43° NNW 12:10:13 10° NE
FENGYUN 3A 3.8 12:01:07 10° NNE 12:06:34 82° ESE 12:11:58 10° S
STARLINK 4.1 12:06:05 26° W 12:07:56 41° NNW 12:11:53 10° NE
Lacrosse 5 3.9 12:07:46 11° NNW 12:09:09 13° NNW 12:11:22 10° N
STARLINK-32 4.1 12:07:41 25° W 12:09:37 40° NNW 12:13:34 10° NE
Cosmos 1400 Rocket 4.4 12:06:27 10° N 12:10:14 37° ENE 12:13:57 10° SE
Cosmos 1238 Rocket 4.5 12:04:39 10° S 12:11:12 65° E 12:17:13 10° NNE
Cosmos 2100 Rocket 4.3 12:05:33 10° SW 12:11:18 40° WNW 12:17:03 10° N
STARLINK-40 4.2 12:09:19 24° W 12:11:18 39° NNW 12:15:13 10° NE
STARLINK-44 4.2 12:10:56 23° W 12:13:00 38° NNW 12:16:54 10° NE
CZ-3B R/B 3.5 12:10:14 10° SW 12:13:45 16° S 12:16:17 10° SSE
Cosmos 372 Rocket 4.0 12:09:00 10° SW 12:14:02 54° WNW 12:19:04 10° N
CZ-4B R/B 3.3 12:09:07 10° NNE 12:14:33 80° ESE 12:20:04 10° S
Tsikada Rocket 4.2 12:08:09 10° N 12:14:33 81° E 12:20:51 10° S
STARLINK-36 4.2 12:12:31 22° W 12:14:39 37° NNW 12:18:33 10° NE
SL-08 R/B 4.4 12:10:26 10° SSW 12:16:31 69° W 12:22:35 10° N
Cosmos 2333 Rocket 4.2 12:11:58 10° N 12:16:41 25° NE 12:21:22 10° ESE
ALOS 2.2 12:14:03 10° N 12:18:42 69° WNW 12:23:19 10° SSW
Cosmos 2219 Rocket 4.2 12:14:31 10° N 12:19:07 25° NE 12:23:41 10° ESE
CZ-2C R/B 3.7 12:17:21 10° NNW 12:20:22 17° WNW 12:20:43 17° WNW
STARLINK-35 4.4 12:18:50 18° W 12:21:15 34° NNW 12:25:03 10° NE
Centaur D AC-28 4.5 12:15:18 10° WSW 12:21:16 37° S 12:52:00 10° ESE
STARLINK-51 4.4 12:20:29 18° W 12:22:59 33° NNW 12:26:46 10° NE
USA 116 3.2 12:20:24 10° S 12:23:34 63° W 12:27:01 10° NNW
STARLINK-30 4.5 12:22:06 17° W 12:24:41 32° NNW 12:28:26 10° NE
STARLINK-33 4.5 12:23:41 16° W 12:26:19 31° NNW 12:30:03 10° NE
Cosmos 1802 Rocket 4.5 12:23:10 10° SW 12:29:07 39° WNW 12:35:06 10° N
PAYLOAD B 4.4 12:31:46 10° N 12:37:03 48° WNW 12:42:17 10° SW
Meteor 1-26 Rocket 4.3 12:32:01 10° N 12:37:43 85° E 12:43:15 10° S
Cosmos 1408 3.9 12:34:59 10° SW 12:37:47 20° WNW 12:40:34 10° NNW
Abrixas rocket 3.3 12:36:16 13° WNW 12:38:19 25° NNW 12:40:54 10° NE
Okean O Rocket 1.8 12:35:26 10° N 12:39:37 48° WNW 12:43:47 10° SSW
Cosmos 2228 Rocket 3.1 12:35:05 10° N 12:39:41 79° W 12:44:15 10° S
Cosmos 972 Rocket 4.0 12:34:55 10° SSW 12:39:55 79° WNW 12:45:25 10° NNE
Cosmos 1048 Rocket 4.0 12:34:35 10° NNW 12:39:57 72° WSW 12:45:14 10° S
Timation 2 Rocket 4.3 12:39:21 10° SSW 12:45:25 72° ESE 12:51:22 10° NNE
Cosmos 1437 3.7 12:43:12 10° SW 12:45:45 24° WNW 12:48:19 10° NNW
Cosmos 1151 Rocket 4.1 12:44:15 10° NW 12:47:50 25° W 12:51:22 10° SW
STARLINK-67 2.4 12:49:58 10° NW 12:52:37 83° NE 12:55:14 10° SE
Cosmos 2233 Rocket 4.1 12:50:55 10° SSW 12:57:03 56° W 13:03:15 10° N
Cosmos 2237 4.3 12:51:30 10° NNW 12:57:08 60° WSW 13:02:42 10° S
Cosmos 2278 4.3 23:38:55 10° S 23:44:06 38° ESE 23:49:19 10° NE
Cosmos 1666 Rocket 4.3 23:44:48 10° NNE 23:48:40 30° ENE 23:52:29 10° SE
NOSS 2-3 (C) 3.8 23:45:30 10° SSW 23:49:40 56° ESE 23:54:22 10° NE
Cosmos 1862 4.3 23:47:37 10° NNE 23:51:01 26° ENE 23:54:23 10° SE
Cosmos 1656 3.8 23:45:33 10° SSW 23:51:07 81° WNW 23:56:37 10° NNE
COSMO-SKYMED 1 3.9 23:47:58 10° NE 23:51:17 21° E 23:54:35 10° SE
AQUARIUS 4.3 23:47:23 10° SSE 23:51:46 54° ENE 23:56:09 10° N
Meteor 2-20 4.5 23:46:33 10° S 23:52:40 85° E 23:58:51 10° N
Cosmos 2233 Rocket 4.4 23:47:26 10° N 23:53:44 72° W 23:59:56 10° S
Cosmos 2221 4.1 23:50:29 10° SSW 23:54:30 38° WNW 23:58:35 10° N
